TimeCST,TemperatureF,Dew PointF,Humidity,Sea Level PressureIn,VisibilityMPH,Wind Direction,Wind SpeedMPH,Gust SpeedMPH,PrecipitationIn,Events,Conditions,WindDirDegrees,DateUTC
12:52 AM,26.1,19.0,75,30.28,10.0,Calm,Calm,-,N/A,,Clear,0,2012-11-12 06:52:00
1:52 AM,27.0,18.0,69,30.30,10.0,Calm,Calm,-,N/A,,Clear,0,2012-11-12 07:52:00
2:52 AM,24.1,18.0,77,30.31,10.0,Calm,Calm,-,N/A,,Clear,0,2012-11-12 08:52:00
3:52 AM,23.0,18.0,81,30.33,10.0,Calm,Calm,-,N/A,,Clear,0,2012-11-12 09:52:00
4:52 AM,21.9,15.1,75,30.34,10.0,WSW,3.5,-,N/A,,Clear,240,2012-11-12 10:52:00
6:52 AM,19.9,16.0,85,30.38,10.0,Calm,Calm,-,N/A,,Clear,0,2012-11-12 12:52:00
7:52 AM,26.1,19.9,78,30.39,10.0,Calm,Calm,-,N/A,,Clear,0,2012-11-12 13:52:00
8:52 AM,32.0,21.9,66,30.40,10.0,West,8.1,-,N/A,,Clear,270,2012-11-12 14:52:00
9:52 AM,37.0,21.0,52,30.42,10.0,West,9.2,-,N/A,,Clear,280,2012-11-12 15:52:00
10:52 AM,42.1,21.9,45,30.41,10.0,West,11.5,-,N/A,,Clear,260,2012-11-12 16:52:00
11:52 AM,45.0,19.9,37,30.39,10.0,WSW,13.8,-,N/A,,Clear,250,2012-11-12 17:52:00
12:52 PM,46.0,19.0,34,30.38,10.0,WNW,17.3,29.9,N/A,,Clear,290,2012-11-12 18:52:00
1:52 PM,46.9,21.0,36,30.38,10.0,West,16.1,20.7,N/A,,Clear,270,2012-11-12 19:52:00
2:52 PM,48.0,19.0,32,30.37,10.0,West,17.3,25.3,N/A,,Clear,280,2012-11-12 20:52:00
3:52 PM,46.9,17.1,30,30.38,10.0,West,15.0,-,N/A,,Clear,280,2012-11-12 21:52:00
4:52 PM,45.0,18.0,34,30.39,10.0,WNW,9.2,-,N/A,,Clear,290,2012-11-12 22:52:00
5:52 PM,37.0,19.0,48,30.41,10.0,West,3.5,-,N/A,,Clear,280,2012-11-12 23:52:00
6:52 PM,28.0,21.0,75,30.43,10.0,Calm,Calm,-,N/A,,Clear,0,2012-11-13 00:52:00
7:52 PM,27.0,21.0,78,30.43,10.0,Calm,Calm,-,N/A,,Clear,0,2012-11-13 01:52:00
8:52 PM,25.0,21.0,85,30.45,10.0,NE,3.5,-,N/A,,Clear,40,2012-11-13 02:52:00
9:52 PM,25.0,19.9,81,30.45,10.0,Calm,Calm,-,N/A,,Clear,0,2012-11-13 03:52:00
10:52 PM,23.0,19.0,85,30.45,10.0,Calm,Calm,-,N/A,,Clear,0,2012-11-13 04:52:00
11:52 PM,24.1,19.0,81,30.46,10.0,Calm,Calm,-,N/A,,Clear,0,2012-11-13 05:52:00